,,,PA_Meas_PMT16A,,PR_Meas_QMR101_102,,RH_Meas_QMH101,,SR_Meas_QMS101,,TA_Meas_QMH101,,GenWind,,GenWind,
date,time,status,PA,status,PR,status,RH,status,SR,status,TA,status,DirAvg,status,SpdAvg,
2012-01-13, 00:00:04,VALID,1007.82,VALID,0,VALID,104,VALID,0.112112,VALID,25.0759,VALID,151,VALID,1.28125,
2012-01-13, 00:01:04,VALID,1007.86,VALID,0,VALID,104,VALID,0.112112,VALID,25.0564,VALID,146,VALID,0.972266,
2012-01-13, 00:02:04,VALID,1007.87,VALID,0,VALID,104,VALID,0.112112,VALID,25.0564,VALID,145,VALID,0.825781,
2012-01-13, 00:03:04,VALID,1007.85,VALID,0,VALID,104,VALID,0.112112,VALID,25.0564,VALID,161,VALID,1.38633,
2012-01-13, 00:04:04,VALID,1007.88,VALID,0,VALID,104,VALID,0.112112,VALID,25.0369,VALID,165,VALID,0.608984,
2012-01-13, 00:05:04,VALID,1007.88,VALID,0,VALID,104,VALID,0,VALID,25.0369,VALID,164,VALID,1.27031,
2012-01-13, 00:06:04,VALID,1007.83,VALID,0,VALID,104,VALID,0,VALID,25.0174,VALID,179,VALID,0.99375,
2012-01-13, 00:07:04,VALID,1007.85,VALID,0,VALID,104,VALID,0,VALID,25.0407,VALID,181,VALID,0.502734,
2012-01-13, 00:08:04,VALID,1007.82,VALID,0,VALID,104,VALID,0,VALID,25.0193,VALID,168,VALID,0.648047,
2012-01-13, 00:09:04,VALID,1007.83,VALID,0,VALID,104,VALID,0,VALID,25.0193,VALID,154,VALID,0.946875,
2012-01-13, 00:10:04,VALID,1007.83,VALID,0,VALID,104,VALID,0,VALID,24.9998,VALID,176,VALID,0.713281,
2012-01-13, 00:11:04,VALID,1007.78,VALID,0,VALID,104,VALID,0,VALID,24.9998,VALID,178,VALID,1.01172,
2012-01-13, 00:12:04,VALID,1007.8,VALID,0,VALID,104,VALID,0,VALID,24.9998,VALID,203,VALID,0.894922,
2012-01-13, 00:13:04,VALID,1007.82,VALID,0,VALID,104,VALID,0,VALID,24.9998,VALID,207,VALID,1.0168,
2012-01-13, 00:14:04,VALID,1007.82,VALID,0,VALID,104,VALID,0,VALID,24.9803,VALID,158,VALID,1.06836,
2012-01-13, 00:15:04,VALID,1007.82,VALID,0,VALID,104,VALID,0,VALID,24.9803,VALID,186,VALID,1.33633,
2012-01-13, 00:16:04,VALID,1007.81,VALID,0,VALID,104,VALID,0,VALID,24.9803,VALID,167,VALID,1.11563,
2012-01-13, 00:17:04,VALID,1007.82,VALID,0,VALID,104,VALID,0,VALID,24.9803,VALID,166,VALID,0.880078,
2012-01-13, 00:18:04,VALID,1007.84,VALID,0,VALID,104,VALID,0,VALID,24.9608,VALID,162,VALID,0.524609,
2012-01-13, 00:19:04,VALID,1007.84,VALID,0,VALID,104,VALID,0,VALID,24.9608,VALID,149,VALID,0.9375,
2012-01-13, 00:20:04,VALID,1007.83,VALID,0,VALID,104,VALID,0,VALID,24.9608,VALID,180,VALID,0.85,
2012-01-13, 00:21:04,VALID,1007.82,VALID,0,VALID,104,VALID,0,VALID,24.9413,VALID,173,VALID,0.726172,
2012-01-13, 00:22:04,VALID,1007.85,VALID,0,VALID,104,VALID,0,VALID,24.9432,VALID,168,VALID,0.848437,
2012-01-13, 00:23:04,VALID,1007.85,VALID,0,VALID,104,VALID,0,VALID,24.9218,VALID,165,VALID,0.969141,
2012-01-13, 00:24:04,VALID,1007.87,VALID,0,VALID,104,VALID,0,VALID,24.9218,VALID,167,VALID,0.575,
2012-01-13, 00:25:04,VALID,1007.86,VALID,0,VALID,104,VALID,0,VALID,24.9237,VALID,164,VALID,1.02734,
2012-01-13, 00:26:04,VALID,1007.86,VALID,0,VALID,104,VALID,0,VALID,24.9023,VALID,151,VALID,0.997266,
2012-01-13, 00:27:04,VALID,1007.91,VALID,0,VALID,104,VALID,0,VALID,24.9023,VALID,162,VALID,0.535547,
2012-01-13, 00:28:04,VALID,1007.89,VALID,0,VALID,104,VALID,0,VALID,24.9237,VALID,167,VALID,0.854688,
2012-01-13, 00:29:04,VALID,1007.89,VALID,0,VALID,104,VALID,0,VALID,24.9023,VALID,162,VALID,0.989062,
2012-01-13, 00:30:04,VALID,1007.9,VALID,0,VALID,104,VALID,0,VALID,24.8828,VALID,158,VALID,0.639844,
2012-01-13, 00:31:04,VALID,1007.9,VALID,0,VALID,104,VALID,0,VALID,24.8828,VALID,157,VALID,1.09766,
2012-01-13, 00:32:04,VALID,1007.88,VALID,0,VALID,104,VALID,0,VALID,24.8828,VALID,159,VALID,0.886719,
2012-01-13, 00:33:04,VALID,1007.89,VALID,0,VALID,104,VALID,0,VALID,24.8633,VALID,169,VALID,0.621875,
2012-01-13, 00:34:04,VALID,1007.9,VALID,0,VALID,104,VALID,0,VALID,24.8847,VALID,168,VALID,0.603906,
2012-01-13, 00:35:04,VALID,1007.9,VALID,0,VALID,104,VALID,0,VALID,24.8633,VALID,186,VALID,0.615625,
2012-01-13, 00:36:04,VALID,1007.88,VALID,0,VALID,104,VALID,0,VALID,24.8438,VALID,156,VALID,0.994141,
2012-01-13, 00:37:04,VALID,1007.86,VALID,0,VALID,104,VALID,0,VALID,24.8652,VALID,150,VALID,0.667969,
2012-01-13, 00:38:04,VALID,1007.86,VALID,0,VALID,104,VALID,0,VALID,24.8244,VALID,150,VALID,0.390234,
2012-01-13, 00:39:04,VALID,1007.85,VALID,0,VALID,104,VALID,0,VALID,24.8244,VALID,152,VALID,0.775781,
2012-01-13, 00:40:04,VALID,1007.85,VALID,0,VALID,104,VALID,0,VALID,24.8049,VALID,153,VALID,0.475391,
2012-01-13, 00:41:04,VALID,1007.86,VALID,0,VALID,104,VALID,0,VALID,24.8262,VALID,153,VALID,0.406641,
2012-01-13, 00:42:04,VALID,1007.85,VALID,0,VALID,104,VALID,0,VALID,24.8049,VALID,153,VALID,0.410937,
2012-01-13, 00:43:04,VALID,1007.87,VALID,0,VALID,104,VALID,0,VALID,24.7854,VALID,154,VALID,0.635938,
2012-01-13, 00:44:04,VALID,1007.87,VALID,0,VALID,104,VALID,0,VALID,24.7854,VALID,146,VALID,0.535156,
2012-01-13, 00:45:04,VALID,1007.88,VALID,0,VALID,104,VALID,0,VALID,24.7854,VALID,156,VALID,0.640625,
2012-01-13, 00:46:04,VALID,1007.88,VALID,0,VALID,104,VALID,0,VALID,24.7854,VALID,156,VALID,0.225391,
2012-01-13, 00:47:04,VALID,1007.85,VALID,0,VALID,104,VALID,0,VALID,24.7854,VALID,156,VALID,0.154297,
2012-01-13, 00:48:04,VALID,1007.85,VALID,0,VALID,104,VALID,0,VALID,24.7659,VALID,156,VALID,0.425781,
2012-01-13, 00:49:04,VALID,1007.82,VALID,0,VALID,104,VALID,0,VALID,24.7464,VALID,158,VALID,0.210938,
2012-01-13, 00:50:04,VALID,1007.82,VALID,0,VALID,104,VALID,0,VALID,24.7464,VALID,158,VALID,0.201953,
2012-01-13, 00:51:04,VALID,1007.82,VALID,0,VALID,104,VALID,0,VALID,24.7464,VALID,158,VALID,0.569141,
2012-01-13, 00:52:04,VALID,1007.8,VALID,0,VALID,104,VALID,0,VALID,24.7269,VALID,158,VALID,0.433203,
2012-01-13, 00:53:04,VALID,1007.79,VALID,0,VALID,104,VALID,0,VALID,24.7464,VALID,158,VALID,0.342969,
2012-01-13, 00:54:04,VALID,1007.79,VALID,0,VALID,104,VALID,0,VALID,24.7269,VALID,158,VALID,0.458984,
2012-01-13, 00:55:04,VALID,1007.78,VALID,0,VALID,104,VALID,0,VALID,24.7288,VALID,158,VALID,0.499219,
2012-01-13, 00:56:04,VALID,1007.8,VALID,0,VALID,104,VALID,0,VALID,24.7074,VALID,158,VALID,0.497266,
2012-01-13, 00:57:04,VALID,1007.78,VALID,0,VALID,104,VALID,0,VALID,24.7269,VALID,158,VALID,0.367969,
2012-01-13, 00:58:04,VALID,1007.78,VALID,0,VALID,104,VALID,0,VALID,24.7269,VALID,158,VALID,0.258984,
2012-01-13, 00:59:04,VALID,1007.79,VALID,0,VALID,104,VALID,0,VALID,24.7483,VALID,158,VALID,0.360156,
2012-01-13, 01:00:04,VALID,1007.78,VALID,0,VALID,104,VALID,0,VALID,24.7074,VALID,157,VALID,0.635547,
2012-01-13, 01:01:04,VALID,1007.79,VALID,0,VALID,104,VALID,0,VALID,24.7288,VALID,143,VALID,0.820313,
2012-01-13, 01:02:04,VALID,1007.78,VALID,0,VALID,104,VALID,0,VALID,24.7269,VALID,128,VALID,0.362891,
2012-01-13, 01:03:04,VALID,1007.77,VALID,0,VALID,104,VALID,0,VALID,24.7269,VALID,131,VALID,0.591406,
2012-01-13, 01:04:04,VALID,1007.74,VALID,0,VALID,104,VALID,0,VALID,24.7269,VALID,131,VALID,0.490234,
2012-01-13, 01:05:04,VALID,1007.73,VALID,0,VALID,104,VALID,0,VALID,24.7074,VALID,131,VALID,0.46875,
2012-01-13, 01:06:04,VALID,1007.75,VALID,0,VALID,104,VALID,0,VALID,24.7074,VALID,139,VALID,0.726563,
2012-01-13, 01:07:04,VALID,1007.74,VALID,0,VALID,104,VALID,0,VALID,24.7074,VALID,140,VALID,0.445703,
2012-01-13, 01:08:04,VALID,1007.74,VALID,0,VALID,104,VALID,0,VALID,24.7269,VALID,141,VALID,0.711719,
2012-01-13, 01:09:04,VALID,1007.77,VALID,0,VALID,104,VALID,0,VALID,24.7074,VALID,141,VALID,0.497266,
2012-01-13, 01:10:04,VALID,1007.75,VALID,0,VALID,104,VALID,0,VALID,24.7074,VALID,141,VALID,0.868359,
2012-01-13, 01:11:04,VALID,1007.75,VALID,0,VALID,104,VALID,0,VALID,24.7074,VALID,150,VALID,0.478125,
2012-01-13, 01:12:04,VALID,1007.77,VALID,0,VALID,104,VALID,0,VALID,24.6879,VALID,144,VALID,0.727344,
2012-01-13, 01:13:04,VALID,1007.76,VALID,0,VALID,104,VALID,0,VALID,24.7074,VALID,143,VALID,0.437891,
2012-01-13, 01:14:04,VALID,1007.8,VALID,0,VALID,104,VALID,0,VALID,24.6879,VALID,143,VALID,0.639453,
2012-01-13, 01:15:04,VALID,1007.78,VALID,0,VALID,104,VALID,0,VALID,24.6879,VALID,142,VALID,0.641406,
2012-01-13, 01:16:04,VALID,1007.75,VALID,0,VALID,104,VALID,0,VALID,24.6898,VALID,146,VALID,0.6875,
2012-01-13, 01:17:04,VALID,1007.74,VALID,0,VALID,104,VALID,0,VALID,24.6898,VALID,141,VALID,0.669922,
2012-01-13, 01:18:04,VALID,1007.75,VALID,0,VALID,104,VALID,0,VALID,24.6684,VALID,134,VALID,0.796875,
2012-01-13, 01:19:04,VALID,1007.75,VALID,0,VALID,104,VALID,0,VALID,24.6684,VALID,132,VALID,1.28516,
2012-01-13, 01:20:04,VALID,1007.75,VALID,0,VALID,104,VALID,0,VALID,24.6684,VALID,146,VALID,0.585938,
2012-01-13, 01:21:04,VALID,1007.75,VALID,0,VALID,104,VALID,0,VALID,24.6684,VALID,150,VALID,0.58125,
2012-01-13, 01:22:04,VALID,1007.71,VALID,0,VALID,104,VALID,0,VALID,24.6879,VALID,137,VALID,0.798437,
2012-01-13, 01:23:04,VALID,1007.72,VALID,0,VALID,104,VALID,0.112112,VALID,24.686,VALID,150,VALID,0.841406,
2012-01-13, 01:24:04,VALID,1007.7,VALID,0,VALID,104,VALID,0.112112,VALID,24.686,VALID,141,VALID,0.662109,
2012-01-13, 01:25:04,VALID,1007.72,VALID,0,VALID,104,VALID,0.224224,VALID,24.686,VALID,141,VALID,0.511719,
2012-01-13, 01:26:04,VALID,1007.67,VALID,0,VALID,104,VALID,0.112112,VALID,24.686,VALID,161,VALID,0.560938,
2012-01-13, 01:27:04,VALID,1007.67,VALID,0,VALID,104,VALID,0.112112,VALID,24.686,VALID,166,VALID,0.570313,
2012-01-13, 01:28:04,VALID,1007.66,VALID,0,VALID,104,VALID,0.112112,VALID,24.6666,VALID,182,VALID,0.678906,
2012-01-13, 01:29:04,VALID,1007.67,VALID,0,VALID,104,VALID,0.112112,VALID,24.6666,VALID,172,VALID,0.842578,
2012-01-13, 01:30:04,VALID,1007.66,VALID,0,VALID,104,VALID,0.112112,VALID,24.686,VALID,166,VALID,0.891797,
2012-01-13, 01:31:04,VALID,1007.64,VALID,0,VALID,104,VALID,0.112112,VALID,24.6666,VALID,183,VALID,0.859766,
2012-01-13, 01:32:04,VALID,1007.61,VALID,0,VALID,104,VALID,0.112112,VALID,24.6666,VALID,164,VALID,0.826953,
2012-01-13, 01:33:04,VALID,1007.63,VALID,0,VALID,104,VALID,0.112112,VALID,24.6666,VALID,164,VALID,0.468359,
2012-01-13, 01:34:04,VALID,1007.62,VALID,0,VALID,104,VALID,0.112112,VALID,24.6666,VALID,164,VALID,0.545313,
2012-01-13, 01:35:04,VALID,1007.62,VALID,0,VALID,104,VALID,0.112112,VALID,24.6666,VALID,141,VALID,0.505469,
2012-01-13, 01:36:04,VALID,1007.61,VALID,0,VALID,104,VALID,0.112112,VALID,24.6471,VALID,140,VALID,0.225391,
2012-01-13, 01:37:04,VALID,1007.62,VALID,0,VALID,104,VALID,0,VALID,24.6489,VALID,140,VALID,0.879297,
2012-01-13, 01:38:04,VALID,1007.61,VALID,0,VALID,104,VALID,0,VALID,24.6489,VALID,157,VALID,0.778906,
2012-01-13, 01:39:04,VALID,1007.61,VALID,0,VALID,104,VALID,0,VALID,24.6294,VALID,163,VALID,0.576563,
2012-01-13, 01:40:04,VALID,1007.6,VALID,0,VALID,104,VALID,0,VALID,24.6489,VALID,166,VALID,0.973047,
2012-01-13, 01:41:04,VALID,1007.6,VALID,0,VALID,104,VALID,0,VALID,24.6489,VALID,132,VALID,0.804297,
2012-01-13, 01:42:04,VALID,1007.6,VALID,0,VALID,104,VALID,0,VALID,24.6489,VALID,146,VALID,0.550781,
2012-01-13, 01:43:04,VALID,1007.58,VALID,0,VALID,104,VALID,0,VALID,24.6489,VALID,149,VALID,0.505469,
2012-01-13, 01:44:04,VALID,1007.58,VALID,0,VALID,104,VALID,0,VALID,24.6489,VALID,156,VALID,0.969922,
2012-01-13, 01:45:04,VALID,1007.59,VALID,0,VALID,104,VALID,0,VALID,24.6489,VALID,173,VALID,0.952734,
2012-01-13, 01:46:04,VALID,1007.63,VALID,0,VALID,104,VALID,0,VALID,24.6684,VALID,196,VALID,0.899219,
2012-01-13, 01:47:04,VALID,1007.62,VALID,0,VALID,104,VALID,0,VALID,24.6898,VALID,192,VALID,0.420312,
2012-01-13, 01:48:04,VALID,1007.62,VALID,0,VALID,104,VALID,0,VALID,24.6684,VALID,173,VALID,0.982813,
2012-01-13, 01:49:04,VALID,1007.64,VALID,0,VALID,104,VALID,0,VALID,24.6684,VALID,172,VALID,1.06211,
2012-01-13, 01:50:04,VALID,1007.65,VALID,0,VALID,104,VALID,0,VALID,24.6684,VALID,177,VALID,0.983984,
2012-01-13, 01:51:04,VALID,1007.64,VALID,0,VALID,104,VALID,0,VALID,24.6898,VALID,177,VALID,0.775,
2012-01-13, 01:52:04,VALID,1007.63,VALID,0,VALID,104,VALID,0,VALID,24.6684,VALID,170,VALID,1.20508,
2012-01-13, 01:53:04,VALID,1007.59,VALID,0,VALID,104,VALID,0,VALID,24.6684,VALID,153,VALID,0.955859,
2012-01-13, 01:54:04,VALID,1007.56,VALID,0,VALID,104,VALID,0,VALID,24.6684,VALID,158,VALID,0.615234,
2012-01-13, 01:55:04,VALID,1007.57,VALID,0,VALID,104,VALID,0,VALID,24.6684,VALID,166,VALID,1.2,
2012-01-13, 01:56:04,VALID,1007.59,VALID,0,VALID,104,VALID,0,VALID,24.6684,VALID,153,VALID,0.960156,
2012-01-13, 01:57:04,VALID,1007.6,VALID,0,VALID,104,VALID,0,VALID,24.6879,VALID,178,VALID,0.715234,
2012-01-13, 01:58:04,VALID,1007.6,VALID,0,VALID,104,VALID,0,VALID,24.6879,VALID,182,VALID,0.44375,
2012-01-13, 01:59:04,VALID,1007.59,VALID,0,VALID,104,VALID,0,VALID,24.6879,VALID,182,VALID,0.596094,
2012-01-13, 02:00:04,VALID,1007.56,VALID,0,VALID,104,VALID,0,VALID,24.6879,VALID,182,VALID,0.512891,
2012-01-13, 02:01:04,VALID,1007.54,VALID,0,VALID,104,VALID,0,VALID,24.6879,VALID,186,VALID,0.903125,
2012-01-13, 02:02:04,VALID,1007.55,VALID,0,VALID,104,VALID,0,VALID,24.6879,VALID,156,VALID,0.735937,
2012-01-13, 02:03:04,VALID,1007.55,VALID,0,VALID,104,VALID,0,VALID,24.6879,VALID,146,VALID,1.04688,
2012-01-13, 02:04:04,VALID,1007.56,VALID,0,VALID,104,VALID,0,VALID,24.6684,VALID,150,VALID,0.923047,
2012-01-13, 02:05:04,VALID,1007.56,VALID,0,VALID,104,VALID,0,VALID,24.6879,VALID,155,VALID,1.16992,
2012-01-13, 02:06:04,VALID,1007.59,VALID,0,VALID,104,VALID,0,VALID,24.6684,VALID,175,VALID,0.952734,
2012-01-13, 02:07:04,VALID,1007.6,VALID,0,VALID,104,VALID,0,VALID,24.6898,VALID,155,VALID,0.436328,
2012-01-13, 02:08:04,VALID,1007.58,VALID,0,VALID,104,VALID,0,VALID,24.6489,VALID,133,VALID,0.821094,
2012-01-13, 02:09:04,VALID,1007.53,VALID,0,VALID,104,VALID,0,VALID,24.6898,VALID,145,VALID,0.692578,
2012-01-13, 02:10:04,VALID,1007.52,VALID,0,VALID,104,VALID,0,VALID,24.6703,VALID,129,VALID,0.395312,
2012-01-13, 02:11:04,VALID,1007.52,VALID,0,VALID,104,VALID,0,VALID,24.6684,VALID,145,VALID,1.01094,
2012-01-13, 02:12:04,VALID,1007.54,VALID,0,VALID,104,VALID,0,VALID,24.6684,VALID,183,VALID,0.659375,
2012-01-13, 02:13:04,VALID,1007.56,VALID,0,VALID,104,VALID,0,VALID,24.6684,VALID,160,VALID,0.701172,
2012-01-13, 02:14:04,VALID,1007.58,VALID,0,VALID,104,VALID,0,VALID,24.6684,VALID,148,VALID,0.925781,
2012-01-13, 02:15:04,VALID,1007.59,VALID,0,VALID,104,VALID,0,VALID,24.7093,VALID,177,VALID,0.960938,
2012-01-13, 02:16:04,VALID,1007.59,VALID,0,VALID,104,VALID,0,VALID,24.6684,VALID,164,VALID,0.795703,
2012-01-13, 02:17:04,VALID,1007.62,VALID,0,VALID,104,VALID,0,VALID,24.6684,VALID,181,VALID,0.794141,
2012-01-13, 02:18:04,VALID,1007.62,VALID,0,VALID,104,VALID,0,VALID,24.6684,VALID,179,VALID,0.675781,
2012-01-13, 02:19:04,VALID,1007.63,VALID,0,VALID,104,VALID,0,VALID,24.6684,VALID,179,VALID,0.421094,
2012-01-13, 02:20:04,VALID,1007.63,VALID,0,VALID,104,VALID,0,VALID,24.6489,VALID,177,VALID,0.508203,
2012-01-13, 02:21:04,VALID,1007.62,VALID,0,VALID,104,VALID,0,VALID,24.6489,VALID,168,VALID,0.598047,
2012-01-13, 02:22:04,VALID,1007.6,VALID,0,VALID,104,VALID,0,VALID,24.6703,VALID,153,VALID,0.916406,
2012-01-13, 02:23:04,VALID,1007.6,VALID,0,VALID,104,VALID,0,VALID,24.6489,VALID,146,VALID,0.525391,
2012-01-13, 02:24:04,VALID,1007.55,VALID,0,VALID,104,VALID,0,VALID,24.6508,VALID,153,VALID,0.518359,
2012-01-13, 02:25:04,VALID,1007.54,VALID,0,VALID,104,VALID,0,VALID,24.6294,VALID,146,VALID,0.719922,
2012-01-13, 02:26:04,VALID,1007.52,VALID,0,VALID,104,VALID,0,VALID,24.6294,VALID,140,VALID,0.690234,
2012-01-13, 02:27:04,VALID,1007.53,VALID,0,VALID,104,VALID,0,VALID,24.6099,VALID,140,VALID,1.08242,
2012-01-13, 02:28:04,VALID,1007.51,VALID,0,VALID,104,VALID,0,VALID,24.6294,VALID,135,VALID,1.14023,
2012-01-13, 02:29:04,VALID,1007.48,VALID,0,VALID,104,VALID,0,VALID,24.6508,VALID,107,VALID,0.918359,
2012-01-13, 02:30:04,VALID,1007.48,VALID,0,VALID,104,VALID,0,VALID,24.6294,VALID,103,VALID,0.614844,
2012-01-13, 02:31:04,VALID,1007.48,VALID,0,VALID,104,VALID,0,VALID,24.6313,VALID,112,VALID,1.03281,
2012-01-13, 02:32:04,VALID,1007.49,VALID,0,VALID,104,VALID,0,VALID,24.6099,VALID,123,VALID,0.879687,
2012-01-13, 02:33:04,VALID,1007.47,VALID,0,VALID,104,VALID,0,VALID,24.6118,VALID,141,VALID,1.22969,
2012-01-13, 02:34:04,VALID,1007.47,VALID,0,VALID,104,VALID,0,VALID,24.5905,VALID,146,VALID,0.666016,
2012-01-13, 02:35:04,VALID,1007.49,VALID,0,VALID,104,VALID,0,VALID,24.5905,VALID,140,VALID,1.08438,
2012-01-13, 02:36:04,VALID,1007.49,VALID,0,VALID,104,VALID,0,VALID,24.5923,VALID,146,VALID,0.752734,
2012-01-13, 02:37:04,VALID,1007.54,VALID,0,VALID,104,VALID,0,VALID,24.5728,VALID,137,VALID,0.566797,
2012-01-13, 02:38:04,VALID,1007.55,VALID,0,VALID,104,VALID,0,VALID,24.5515,VALID,138,VALID,0.471484,
2012-01-13, 02:39:04,VALID,1007.54,VALID,0,VALID,104,VALID,0,VALID,24.5515,VALID,139,VALID,0.397266,
2012-01-13, 02:40:04,VALID,1007.53,VALID,0,VALID,104,VALID,0,VALID,24.532,VALID,139,VALID,0.656641,
2012-01-13, 02:41:04,VALID,1007.55,VALID,0,VALID,104,VALID,0,VALID,24.5338,VALID,138,VALID,0.691406,
2012-01-13, 02:42:04,VALID,1007.54,VALID,0,VALID,104,VALID,0,VALID,24.5125,VALID,139,VALID,0.935938,
2012-01-13, 02:43:04,VALID,1007.57,VALID,0,VALID,104,VALID,0,VALID,24.493,VALID,120,VALID,0.981641,
2012-01-13, 02:44:04,VALID,1007.54,VALID,0,VALID,104,VALID,0,VALID,24.493,VALID,120,VALID,0.932422,
2012-01-13, 02:45:04,VALID,1007.55,VALID,0,VALID,104,VALID,0,VALID,24.493,VALID,117,VALID,0.785937,
2012-01-13, 02:46:04,VALID,1007.53,VALID,0,VALID,104,VALID,0,VALID,24.4735,VALID,125,VALID,0.923437,
2012-01-13, 02:47:04,VALID,1007.55,VALID,0,VALID,104,VALID,0,VALID,24.4735,VALID,121,VALID,0.939062,
2012-01-13, 02:48:04,VALID,1007.54,VALID,0,VALID,104,VALID,0,VALID,24.4949,VALID,122,VALID,0.689844,
2012-01-13, 02:49:04,VALID,1007.56,VALID,0,VALID,104,VALID,0,VALID,24.4754,VALID,122,VALID,0.465234,
2012-01-13, 02:50:04,VALID,1007.56,VALID,0,VALID,104,VALID,0,VALID,24.4754,VALID,130,VALID,1.04375,
2012-01-13, 02:51:04,VALID,1007.56,VALID,0,VALID,104,VALID,0,VALID,24.4345,VALID,132,VALID,0.566406,
2012-01-13, 02:52:04,VALID,1007.56,VALID,0,VALID,104,VALID,0,VALID,24.415,VALID,136,VALID,0.451953,
2012-01-13, 02:53:04,VALID,1007.57,VALID,0,VALID,104,VALID,0,VALID,24.4364,VALID,144,VALID,0.550391,
2012-01-13, 02:54:04,VALID,1007.58,VALID,0,VALID,104,VALID,0,VALID,24.3956,VALID,143,VALID,0.603906,
2012-01-13, 02:55:04,VALID,1007.61,VALID,0,VALID,104,VALID,0,VALID,24.3956,VALID,141,VALID,0.510938,
2012-01-13, 02:56:04,VALID,1007.62,VALID,0,VALID,104,VALID,0.112112,VALID,24.3937,VALID,140,VALID,0.394922,
2012-01-13, 02:57:04,VALID,1007.6,VALID,0,VALID,104,VALID,0,VALID,24.3547,VALID,140,VALID,0.8875,
2012-01-13, 02:58:04,VALID,1007.62,VALID,0,VALID,104,VALID,0.112112,VALID,24.3742,VALID,131,VALID,1.21211,
2012-01-13, 02:59:04,VALID,1007.61,VALID,0,VALID,104,VALID,0,VALID,24.3742,VALID,127,VALID,0.542188,
2012-01-13, 03:00:04,VALID,1007.61,VALID,0,VALID,104,VALID,0.112112,VALID,24.3529,VALID,127,VALID,0.0464844,
2012-01-13, 03:01:04,VALID,1007.59,VALID,0,VALID,104,VALID,0,VALID,24.3547,VALID,128,VALID,0.0808594,
2012-01-13, 03:02:04,VALID,1007.61,VALID,0,VALID,104,VALID,0.112112,VALID,24.3566,VALID,140,VALID,0.143359,
2012-01-13, 03:03:04,VALID,1007.61,VALID,0,VALID,104,VALID,0.112112,VALID,24.3352,VALID,140,VALID,0.155078,
2012-01-13, 03:04:04,VALID,1007.6,VALID,0,VALID,104,VALID,0.112112,VALID,24.3371,VALID,140,VALID,0.0898438,
2012-01-13, 03:05:04,VALID,1007.65,VALID,0,VALID,104,VALID,0.112112,VALID,24.3158,VALID,140,VALID,0.11875,
2012-01-13, 03:06:04,VALID,1007.67,VALID,0,VALID,104,VALID,0.112112,VALID,24.3352,VALID,140,VALID,0.135156,
2012-01-13, 03:07:04,VALID,1007.67,VALID,0,VALID,104,VALID,0,VALID,24.3371,VALID,250,VALID,0.660937,
2012-01-13, 03:08:04,VALID,1007.66,VALID,0,VALID,104,VALID,0,VALID,24.3371,VALID,250,VALID,0.0878906,
2012-01-13, 03:09:04,VALID,1007.65,VALID,0,VALID,104,VALID,0,VALID,24.3371,VALID,250,VALID,0,
2012-01-13, 03:10:04,VALID,1007.71,VALID,0,VALID,104,VALID,0,VALID,24.3176,VALID,250,VALID,0.482422,
2012-01-13, 03:11:04,VALID,1007.73,VALID,0,VALID,104,VALID,0,VALID,24.3176,VALID,221,VALID,0.470313,
2012-01-13, 03:12:04,VALID,1007.71,VALID,0,VALID,104,VALID,0,VALID,24.3176,VALID,188,VALID,0.223047,
2012-01-13, 03:13:04,VALID,1007.73,VALID,0,VALID,104,VALID,0,VALID,24.3176,VALID,134,VALID,0.842969,
2012-01-13, 03:14:04,VALID,1007.69,VALID,0,VALID,104,VALID,0,VALID,24.3176,VALID,111,VALID,1.05156,
2012-01-13, 03:15:04,VALID,1007.73,VALID,0,VALID,104,VALID,0,VALID,24.3176,VALID,113,VALID,0.868359,
2012-01-13, 03:16:04,VALID,1007.69,VALID,0,VALID,104,VALID,0,VALID,24.3176,VALID,113,VALID,1.44648,
2012-01-13, 03:17:04,VALID,1007.72,VALID,0,VALID,104,VALID,0,VALID,24.3584,VALID,143,VALID,1.08125,
2012-01-13, 03:18:04,VALID,1007.71,VALID,0,VALID,104,VALID,0,VALID,24.3176,VALID,144,VALID,0.667578,
2012-01-13, 03:19:04,VALID,1007.73,VALID,0,VALID,104,VALID,0,VALID,24.3176,VALID,131,VALID,0.959375,
2012-01-13, 03:20:04,VALID,1007.72,VALID,0,VALID,104,VALID,0,VALID,24.3176,VALID,144,VALID,0.783594,
2012-01-13, 03:21:04,VALID,1007.72,VALID,0,VALID,104,VALID,0,VALID,24.3,VALID,159,VALID,0.576563,
2012-01-13, 03:22:04,VALID,1007.72,VALID,0,VALID,104,VALID,0,VALID,24.2786,VALID,160,VALID,0.681641,
2012-01-13, 03:23:04,VALID,1007.75,VALID,0,VALID,104,VALID,0,VALID,24.2591,VALID,160,VALID,0.326172,
2012-01-13, 03:24:04,VALID,1007.75,VALID,0,VALID,104,VALID,0,VALID,24.2591,VALID,160,VALID,0.146875,
2012-01-13, 03:25:04,VALID,1007.76,VALID,0,VALID,104,VALID,0,VALID,24.2591,VALID,208,VALID,0.611719,
2012-01-13, 03:26:04,VALID,1007.78,VALID,0,VALID,104,VALID,0,VALID,24.2591,VALID,209,VALID,0.597656,
2012-01-13, 03:27:04,VALID,1007.77,VALID,0,VALID,104,VALID,0,VALID,24.2786,VALID,209,VALID,0.361719,
2012-01-13, 03:28:04,VALID,1007.77,VALID,0,VALID,104,VALID,0,VALID,24.2805,VALID,209,VALID,0.458203,
2012-01-13, 03:29:04,VALID,1007.76,VALID,0,VALID,104,VALID,0,VALID,24.2786,VALID,209,VALID,0.501562,
2012-01-13, 03:30:04,VALID,1007.77,VALID,0,VALID,104,VALID,0,VALID,24.2591,VALID,198,VALID,0.281641,
2012-01-13, 03:31:04,VALID,1007.79,VALID,0,VALID,104,VALID,0,VALID,24.2805,VALID,198,VALID,0.450391,
2012-01-13, 03:32:04,VALID,1007.8,VALID,0,VALID,104,VALID,0,VALID,24.2591,VALID,198,VALID,0.348437,
2012-01-13, 03:33:04,VALID,1007.79,VALID,0,VALID,104,VALID,0,VALID,24.2805,VALID,195,VALID,0.562891,
2012-01-13, 03:34:04,VALID,1007.75,VALID,0,VALID,104,VALID,0,VALID,24.261,VALID,190,VALID,0.451562,
2012-01-13, 03:35:04,VALID,1007.77,VALID,0,VALID,104,VALID,0,VALID,24.2202,VALID,190,VALID,0.245703,
2012-01-13, 03:36:04,VALID,1007.74,VALID,0,VALID,104,VALID,0,VALID,24.2415,VALID,189,VALID,0.479297,
2012-01-13, 03:37:04,VALID,1007.75,VALID,0,VALID,104,VALID,0,VALID,24.2007,VALID,189,VALID,0.203125,
2012-01-13, 03:38:04,VALID,1007.8,VALID,0,VALID,104,VALID,0,VALID,24.2007,VALID,189,VALID,0.373047,
2012-01-13, 03:39:04,VALID,1007.78,VALID,0,VALID,104,VALID,0.112112,VALID,24.1793,VALID,154,VALID,0.566406,
2012-01-13, 03:40:04,VALID,1007.81,VALID,0,VALID,104,VALID,0,VALID,24.1793,VALID,154,VALID,0.381641,
2012-01-13, 03:41:04,VALID,1007.8,VALID,0,VALID,104,VALID,0.112112,VALID,24.1599,VALID,154,VALID,0.237109,
2012-01-13, 03:42:04,VALID,1007.85,VALID,0,VALID,104,VALID,0.112112,VALID,24.158,VALID,153,VALID,0.449609,
2012-01-13, 03:43:04,VALID,1007.84,VALID,0,VALID,104,VALID,0.112112,VALID,24.1812,VALID,153,VALID,0.423438,
2012-01-13, 03:44:04,VALID,1007.88,VALID,0,VALID,104,VALID,0.112112,VALID,24.1404,VALID,153,VALID,0.209766,
2012-01-13, 03:45:04,VALID,1007.9,VALID,0,VALID,104,VALID,0,VALID,24.1599,VALID,153,VALID,0.298047,
2012-01-13, 03:46:04,VALID,1007.9,VALID,0,VALID,104,VALID,0.112112,VALID,24.1404,VALID,153,VALID,0.00117188,
2012-01-13, 03:47:04,VALID,1007.91,VALID,0,VALID,104,VALID,0.112112,VALID,24.1404,VALID,153,VALID,0.235156,
2012-01-13, 03:48:04,VALID,1007.92,VALID,0,VALID,104,VALID,0,VALID,24.1404,VALID,153,VALID,0.434375,
2012-01-13, 03:49:04,VALID,1007.97,VALID,0,VALID,104,VALID,0.112112,VALID,24.1617,VALID,153,VALID,0.0261719,
2012-01-13, 03:50:04,VALID,1007.97,VALID,0,VALID,104,VALID,0,VALID,24.1617,VALID,153,VALID,0.325391,